Location: Newark
(50.0306°N, 2.3272°E)
Time: 02:05:42
(UTC+00:00)

A-11 Canister half - Pass Details

Date: 08 December 2019
Orbit: 1525 x 1684 km, 47.3° (Epoch: 20 January)

Event Time Altitude Azimuth Distance (km) Brightness Sun altitude
Rises 07:46:28 0° 244° (WSW) 4,927 11.4 0.6°
Reaches altitude 10° 07:49:39 10° 242° (WSW) 3,944 10.9 1.0°
Maximum altitude 07:59:42 68° 163° (SSE) 1,780 9.7 2.2°
Drops below altitude 10° 08:09:37 10° 83° (E) 3,900 11.8 3.4°
Sets 08:12:44 0° 81° (E) 4,870 12.2 3.8°
